FW5157 Weather Reports


time (UTC)temp
C
wind
direction
speed
KPH
gust
KPH
rain 1hr
cm
rain 24hr
cm
rain mn
cm
humidity
%
barometer
mb
20260508014551 5 0 0.0 0.0 0.00 0.00 0.00 83 1014.6
20260508013051 5 0 0.0 1.6 0.00 0.00 0.00 83 1014.5
20260508011548 5 0 0.0 1.6 0.00 0.00 0.00 82 1014.6
20260508010051 6 173 0.0 1.6 0.00 0.00 0.00 82 1014.7
20260508004559 6 0 0.0 1.6 0.00 0.00 0.00 81 1014.6
20260508003050 6 0 0.0 0.0 0.00 0.00 0.00 81 1014.7
20260508001552 6 0 0.0 1.6 0.00 0.00 0.00 80 1014.7
20260508000056 6 0 0.0 0.0 0.00 0.00 0.00 80 1014.7
20260507234550 7 0 0.0 1.6 0.00 0.00 0.00 79 1014.9
20260507233052 7 0 0.0 0.0 0.00 0.00 0.00 79 1015.1
20260507231556 7 0 0.0 0.0 0.00 0.00 0.00 78 1015.2
20260507230048 8 0 0.0 3.2 0.00 0.00 0.00 77 1015.3
20260507224557 8 0 0.0 1.6 0.00 0.00 0.00 76 1015.2
20260507223050 9 0 0.0 0.0 0.00 0.00 0.00 75 1015.1
20260507221551 9 0 0.0 1.6 0.00 0.00 0.00 74 1015.1
20260507220051 10 0 0.0 3.2 0.00 0.00 0.00 73 1015.3
20260507214613 10 0 0.0 0.0 0.00 0.00 0.00 72 1015.4
20260507213104 11 0 0.0 0.0 0.00 0.00 0.00 72 1015.4
20260507211607 11 0 0.0 1.6 0.00 0.00 0.00 71 1015.4
20260507210055 11 0 0.0 0.0 0.00 0.00 0.00 70 1015.4
20260507204547 11 0 0.0 0.0 0.00 0.00 0.00 70 1015.1
20260507203059 12 0 0.0 0.0 0.00 0.00 0.00 69 1015.0
20260507201552 12 0 0.0 0.0 0.00 0.00 0.00 68 1014.8
20260507200052 12 0 0.0 0.0 0.00 0.00 0.00 67 1014.4
20260507194615 12 0 0.0 0.0 0.00 0.00 0.00 67 1014.2
20260507193048 13 0 0.0 1.6 0.00 0.00 0.00 66 1014.1
20260507191550 13 0 0.0 1.6 0.00 0.00 0.00 66 1014.1
20260507190053 13 0 0.0 4.8 0.00 0.00 0.00 65 1014.2
20260507184603 14 170 0.0 4.8 0.00 0.00 0.00 64 1014.1
20260507183054 14 185 0.0 4.8 0.00 0.00 0.00 64 1014.1
20260507181552 14 176 0.0 3.2 0.00 0.00 0.00 63 1014.0
20260507174553 15 131 0.0 4.8 0.00 0.00 0.00 62 1013.8
20260507173054 15 136 0.0 8.0 0.00 0.00 0.00 61 1013.7
20260507171553 15 201 1.6 8.0 0.00 0.00 0.00 60 1013.7
20260507170052 15 191 0.0 4.8 0.00 0.00 0.00 58 1013.7
20260507164551 15 201 1.6 6.4 0.00 0.00 0.00 58 1013.8
20260507163101 15 0 0.0 8.0 0.00 0.00 0.00 58 1013.7
20260507161555 15 0 0.0 8.0 0.00 0.00 0.00 57 1013.7
20260507160052 16 217 0.0 8.0 0.00 0.00 0.00 56 1013.8
20260507154544 16 184 0.0 9.7 0.00 0.00 0.00 58 1013.8
20260507153051 16 202 1.6 8.0 0.00 0.00 0.00 55 1013.8
20260507151549 16 0 1.6 6.4 0.00 0.00 0.00 48 1013.8
20260507150058 16 0 1.6 4.8 0.00 0.00 0.00 49 1013.8
20260507144554 16 83 0.0 6.4 0.00 0.00 0.00 49 1013.9
20260507143101 16 78 1.6 6.4 0.00 0.00 0.00 50 1014.0
20260507141553 16 73 0.0 4.8 0.00 0.00 0.00 49 1014.1
20260507140053 15 73 0.0 4.8 0.00 0.00 0.00 48 1014.1
20260507134550 15 69 0.0 8.0 0.00 0.00 0.00 49 1014.2
20260507133103 16 0 0.0 4.8 0.00 0.00 0.00 46 1014.3
20260507131611 16 0 0.0 8.0 0.00 0.00 0.00 45 1014.1
20260507130053 17 46 1.6 4.8 0.00 0.00 0.00 41 1014.1
20260507124551 18 105 1.6 8.0 0.00 0.00 0.00 44 1014.2
20260507123048 17 69 1.6 6.4 0.00 0.00 0.00 44 1014.2
20260507121550 15 38 0.0 3.2 0.00 0.00 0.00 50 1014.4
20260507120054 15 0 0.0 3.2 0.00 0.00 0.00 48 1014.4
20260507114553 14 0 0.0 3.2 0.00 0.00 0.00 50 1014.5
20260507113056 14 0 1.6 3.2 0.00 0.00 0.00 49 1014.4
20260507111550 14 33 0.0 4.8 0.00 0.00 0.00 51 1014.5
20260507110049 15 0 0.0 4.8 0.00 0.00 0.00 51 1014.6
20260507104553 16 93 1.6 4.8 0.00 0.00 0.00 49 1014.4
20260507103049 14 61 0.0 3.2 0.00 0.00 0.00 54 1014.7
20260507101556 15 109 1.6 4.8 0.00 0.00 0.00 52 1014.8
20260507100047 13 0 0.0 3.2 0.00 0.00 0.00 60 1014.9
20260507094552 13 0 0.0 3.2 0.00 0.00 0.00 59 1015.0
20260507093054 13 0 0.0 3.2 0.00 0.00 0.00 61 1014.9
20260507091550 13 0 0.0 4.8 0.00 0.00 0.00 65 1014.9
20260507090044 14 92 1.6 4.8 0.00 0.00 0.00 66 1014.9
20260507084551 13 0 0.0 4.8 0.00 0.00 0.00 70 1014.9
20260507083044 13 109 1.6 6.4 0.00 0.00 0.00 74 1014.9
20260507081551 12 155 0.0 4.8 0.00 0.00 0.00 79 1014.7
20260507080049 10 0 0.0 4.8 0.00 0.00 0.00 87 1014.7
20260507074550 10 75 0.0 6.4 0.00 0.00 0.00 87 1014.7
20260507073050 8 0 0.0 4.8 0.00 0.00 0.00 89 1014.8
20260507071606 7 0 0.0 3.2 0.00 0.00 0.00 89 1014.6
20260507070048 6 0 0.0 4.8 0.00 0.00 0.00 89 1014.6
20260507064546 5 0 0.0 1.6 0.00 0.00 0.00 88 1014.6
20260507063046 4 0 0.0 3.2 0.00 0.00 0.00 87 1014.8
20260507061558 3 0 0.0 0.0 0.00 0.00 0.00 86 1014.7
20260507060056 3 0 0.0 0.0 0.00 0.00 0.00 86 1014.5
20260507054546 3 0 0.0 1.6 0.00 0.00 0.00 86 1014.5
20260507053115 3 0 0.0 1.6 0.00 0.00 0.00 85 1014.4
20260507051550 3 0 0.0 1.6 0.00 0.00 0.00 85 1014.1
20260507050046 3 0 0.0 1.6 0.00 0.00 0.00 84 1014.1
20260507044556 3 0 0.0 1.6 0.00 0.00 0.00 84 1014.0
20260507043051 3 0 0.0 1.6 0.00 0.00 0.00 84 1013.9
20260507041547 3 0 0.0 1.6 0.00 0.00 0.00 84 1014.0
20260507040055 3 0 0.0 0.0 0.00 0.00 0.00 84 1014.2
20260507034551 4 0 0.0 0.0 0.00 0.00 0.00 84 1014.1
20260507033052 4 0 0.0 0.0 0.00 0.00 0.00 83 1014.1
20260507031554 4 0 0.0 0.0 0.00 0.00 0.00 83 1014.2
20260507030053 4 0 0.0 0.0 0.00 0.00 0.00 83 1014.1
20260507024601 5 0 0.0 0.0 0.00 0.00 0.00 83 1014.0
20260507023044 5 0 0.0 0.0 0.00 0.00 0.00 82 1014.1
20260507021545 5 0 0.0 0.0 0.00 0.00 0.00 82 1013.9
20260507020049 5 0 0.0 0.0 0.00 0.00 0.00 82 1013.8